Location: Unspecified
(0.0000°N, 0.0000°E)
Time: 01:23:42
(UTC+00:00)

Vanguard 1 Rocket - Pass Details

Date: 10 October 2023
Orbit: 650 x 4218 km, 34.3° (Epoch: 13 October)

Event Time Altitude Azimuth Distance (km) Brightness Sun altitude
Exits shadow 03:26:29 34° 318° (NW) 5,236 10.8 -34.9°
Maximum altitude 03:39:53 77° 36° (NE) 3,233 10.0 -31.6°
Drops below altitude 10° 03:53:57 10° 120° (ESE) 4,547 11.8 -28.1°
Sets 03:56:40 0° 122° (ESE) 5,199 12.3 -27.4°
